CAPE
0 0 0 0 0 0 0 0 0 0 0 0 0 0 0 0 0 1 2 1 0 0 1 1 1 1 1 0 1 0 0 0 2 0 0 0 0 0 0 0 0 0 0
0 0 0 0 0 0 0 0 0 0 0 0 0 0 0 0 0 1 2 1 1 0 0 1 1 2 2 1 2 4 4 2 1 0 0 0 0 0 0 0 0 0 0
0 0 0 0 0 0 0 0 0 0 0 0 0 0 0 0 0 0 0 1 1 1 0 0 0 1 1 2 3 3 3 2 1 0 0 0 0 0 0 1 0 0 0
0 0 0 0 0 0 0 0 0 0 0 0 0 0 0 0 0 0 1 2 1 1 1 1 1 1 1 2 1 2 2 2 3 2 0 0 0 1 0 0 0 0 0
0 0 0 0 0 0 0 0 0 0 0 0 0 0 0 0 0 0 0 2 1 1 1 0 0 0 0 1 1 2 2 2 3 3 0 0 0 1 1 0 0 0 0
0 0 0 0 0 0 0 0 0 0 0 0 0 0 0 0 0 0 0 1 1 1 1 1 0 0 0 0 0 0 0 3 2 2 1 0 1 1 0 0 0 0 0
0 0 0 0 0 0 0 0 0 0 0 0 0 0 0 0 0 0 1 1 1 1 1 1 0 0 0 0 2 2 3 2 0 1 0 1 0 0 0 0 0 0 0
0 0 0 0 0 0 0 0 0 0 0 0 0 0 0 0 0 0 0 0 0 0 0 0 0 0 0 1 2 1 1 0 0 1 1 2 1 0 0 0 0 0 0
0 0 0 0 0 0 0 0 0 0 0 0 0 0 0 0 0 0 0 0 0 0 0 0 0 0 0 2 1 1 1 0 0 0 1 1 1 2 0 0 1 0 0
0 0 0 0 0 0 0 0 0 0 0 0 0 0 0 0 0 0 0 0 0 0 0 0 0 0 0 2 1 0 0 0 0 1 0 1 0 2 3 0 0 0 0
0 0 0 0 0 0 0 0 0 0 0 0 0 0 0 0 0 0 0 0 0 0 0 0 0 1 1 2 1 0 0 1 1 0 0 0 0 1 0 0 0 0 0
0 0 0 0 0 0 0 0 0 0 0 0 0 0 0 0 0 0 0 0 0 0 0 0 0 0 1 0 0 1 1 1 0 0 0 0 0 1 0 0 0 0 0
0 0 0 0 0 0 0 0 0 0 0 0 0 0 0 0 0 0 0 0 1 0 0 0 0 1 0 0 0 0 0 0 0 0 0 0 0 0 0 0 0 0 0
0 0 0 0 0 0 0 0 0 0 0 0 0 0 0 0 0 0 0 0 1 0 0 0 0 0 1 0 0 0 0 0 0 0 0 0 0 0 0 0 0 0 0
0 0 0 0 0 0 0 0 0 0 0 0 0 0 0 0 0 0 0 0 0 0 0 0 0 0 0 0 0 0 0 0 0 0 0 0 0 0 0 0 0 0 0
0 0 3 5 2 0 0 0 0 1 1 0 0 0 0 0 1 0 0 0 0 1 0 0 0 0 0 0 0 0 0 0 0 0 0 0 0 0 0 0 0 0 0
0 0 1 4 1 0 0 0 0 0 1 1 0 1 0 0 0 0 0 0 0 0 0 0 0 0 0 0 0 0 0 0 0 0 0 0 0 0 0 0 0 0 0
0 0 0 1 0 0 0 0 0 0 0 0 0 1 1 0 0 0 0 0 0 0 0 0 0 0 0 0 0 0 0 0 0 0 0 0 0 0 0 0 0 0 0
0 0 0 0 0 0 0 0 0 0 0 0 0 0 0 1 0 0 0 0 0 0 0 0 0 0 0 0 0 0 0 0 0 0 0 0 0 0 0 0 0 0 0
0 0 0 0 0 0 0 0 0 0 0 0 0 0 0 0 0 0 0 0 0 0 0 0 0 0 0 0 0 0 0 0 0 0 0 0 0 0 0 0 0 0 0
0 0 0 0 0 0 0 0 0 0 0 0 0 2 0 0 0 0 0 0 0 0 0 0 0 0 0 0 0 0 0 0 0 0 0 0 0 0 0 0 0 0 0
0 0 0 0 0 0 0 0 0 0 0 0 0 1 0 0 0 0 0 0 0 0 0 0 0 0 0 0 0 0 0 0 0 0 0 0 0 0 0 0 0 0 0
0 0 0 0 0 0 0 0 0 0 0 0 0 0 0 0 0 0 0 0 0 0 0 0 0 0 0 0 0 0 0 0 0 0 0 0 0 0 0 0 0 0 0
0 0 0 0 0 0 0 0 0 0 0 0 0 0 0 0 0 0 0 0 0 0 0 0 0 0 0 0 0 0 0 0 0 0 0 0 0 0 0 0 0 0 0
0 0 0 0 0 0 0 0 0 0 0 0 0 0 0 0 0 0 0 0 0 0 0 0 0 0 0 0 0 0 0 0 0 0 0 0 0 0 0 0 0 0 0
0 0 0 0 0 0 0 0 0 0 0 0 0 0 0 0 0 0 0 0 0 0 0 0 0 0 0 0 0 0 0 0 0 0 0 0 0 0 0 0 0 0 0
CIN
-0 -0 -0 -0 -0 -0 -0 -0 -0 -0 -0 -0 -0 -0 -0 -0 -0 -0 -0 -0 -0 -0 -0 -0 -0 -0 -0 -0 -0 -0 -0 -0 -0 -0 -0 -0 -0 -0 -0 -0 -0 -0 -0
-0 -0 -0 -0 -0 -0 -0 -0 -0 -0 -0 -0 -0 -0 -0 -0 -0 -0 -0 -0 -0 -0 -0 -0 -0 -0 -0 -0 -0 -0 -0 -0 -0 -0 -0 -0 -0 -0 -0 -0 -0 -0 -0
-0 -0 -0 -0 -0 -0 -0 -0 -0 -0 -0 -0 -0 -0 -0 -0 -0 -0 -0 -0 -0 -0 -0 -0 -0 -0 -0 -0 -0 -0 -0 -0 -0 -0 -0 -0 -0 -0 -0 -0 -0 -0 -0
-0 -0 -0 -0 -0 -0 -0 -0 -0 -0 -0 -0 -0 -0 -0 -0 -0 -0 -0 -0 -0 -0 -0 -0 -0 -0 -0 -0 -0 -0 -0 -0 -0 -0 -0 -0 -0 -0 -0 -0 -0 -0 -0
-0 -0 -0 -0 -0 -0 -0 -0 -0 -0 -0 -0 -0 -0 -0 -0 -0 -0 -0 -0 -0 -0 -0 -0 -0 -0 -0 -0 -0 -0 -0 -0 -0 -0 -0 -0 -0 -0 -0 -0 -0 -0 -0
-0 -0 -0 -0 -0 -0 -0 -0 -0 -0 -0 -0 -0 -0 -0 -0 -0 -0 -0 -0 -0 -0 -0 -0 -0 -0 -0 -0 -0 -0 -0 -0 -0 -0 -0 -0 -0 -0 -0 -0 -0 -0 -0
-0 -0 -0 -0 -0 -0 -0 -0 -0 -0 -0 -0 -0 -0 -0 -0 -0 -0 -0 -0 -0 -0 -0 -0 -0 -0 -0 -0 -0 -0 -0 -0 -0 -0 -0 -0 -0 -0 -0 -0 -0 -0 -0
-0 -0 -0 -0 -0 -0 -0 -0 -0 -0 -0 -0 -0 -0 -0 -0 -0 -0 -0 -0 -0 -0 -0 -0 -0 -0 -0 -0 -0 -0 -0 -0 -0 -0 -0 -0 -0 -0 -0 -0 -0 -0 -0
-0 -0 -0 -0 -0 -0 -0 -0 -0 -0 -0 -0 -0 -0 -0 -0 -0 -0 -0 -0 -0 -0 -0 -0 -0 -0 -0 -0 -0 -0 -0 -0 -0 -0 -0 -0 -0 -0 -0 -0 -0 -0 -0
-0 -0 -0 -0 -0 -0 -0 -0 -0 -0 -0 -0 -0 -0 -0 -0 -0 -0 -0 -0 -0 -0 -0 -0 -0 -0 -0 -0 -0 -0 -0 -0 -0 -0 -0 -0 -0 -0 -0 -0 -0 -0 -0
-0 -0 -0 -0 -0 -0 -0 -0 -0 -0 -0 -0 -0 -0 -0 -0 -0 -0 -0 -0 -0 -0 -0 -0 -0 -0 -0 -0 -0 -0 -0 -0 -0 -0 -0 -0 -0 -0 -0 -0 -0 -0 -0
-0 -0 -0 -0 -0 -0 -0 -0 -0 -0 -0 -0 -0 -0 -0 -0 -0 -0 -0 -0 -0 -0 -0 -0 -0 -0 -0 -0 -0 -0 -0 -0 -0 -0 -0 -0 -0 -0 -0 -0 -0 -0 -0
-0 -0 -0 -0 -0 -0 -0 -0 -0 -0 -0 -0 -0 -0 -0 -0 -0 -0 -0 -0 -0 -0 -0 -0 -0 -0 -0 -0 -0 -0 -0 -0 -0 -0 -0 -0 -0 -0 -0 -0 -0 -0 -0
-0 -0 -0 -0 -0 -0 -0 -0 -0 -0 -0 -0 -0 -0 -0 -0 -0 -0 -0 -0 -0 -0 -0 -0 -0 -0 -0 -0 -0 -0 -0 -0 -0 -0 -0 -0 -0 -0 -0 -0 -0 -0 -0
-0 -0 -0 -0 -0 -0 -0 -0 -0 -0 -0 -0 -0 -0 -0 -0 -0 -0 -0 -0 -0 -0 -0 -0 -0 -0 -0 -0 -0 -0 -0 -0 -0 -0 -0 -0 -0 -0 -0 -0 -0 -0 -0
-0 -0 -0 -0 -0 -0 -0 -0 -0 -0 -0 -0 -0 -0 -0 -0 -0 -0 -0 -0 -0 -0 -0 -0 -0 -0 -0 -0 -0 -0 -0 -0 -0 -0 -0 -0 -0 -0 -0 -0 -0 -0 -0
-0 -0 -0 -0 -0 -0 -0 -0 -0 -0 -0 -0 -0 -0 -0 -0 -0 -0 -0 -0 -0 -0 -0 -0 -0 -0 -0 -0 -0 -0 -0 -0 -0 -0 -0 -0 -0 -0 -0 -0 -0 -0 -0
-0 -0 -0 -0 -0 -0 -0 -0 -0 -0 -0 -0 -0 -0 -0 -0 -0 -0 -0 -0 -0 -0 -0 -0 -0 -0 -0 -0 -0 -0 -0 -0 -0 -0 -0 -0 -0 -0 -0 -0 -0 -0 -0
-0 -0 -0 -0 -0 -0 -0 -0 -0 -0 -0 -0 -0 -0 -0 -0 -0 -0 -0 -0 -0 -0 -0 -0 -0 -0 -0 -0 -0 -0 -0 -0 -0 -0 -0 -0 -0 -0 -0 -0 -0 -0 -0
-0 -0 -0 -0 -0 -0 -0 -0 -0 -0 -0 -0 -0 -0 -0 -0 -0 -0 -0 -0 -0 -0 -0 -0 -0 -0 -0 -0 -0 -0 -0 -0 -0 -0 -0 -0 -0 -0 -0 -0 -0 -0 -0
-0 -0 -0 -0 -0 -0 -0 -0 -0 -0 -0 -0 -0 -0 -0 -0 -0 -0 -0 -0 -0 -0 -0 -0 -0 -0 -0 -0 -0 -0 -0 -0 -0 -0 -0 -0 -0 -0 -0 -0 -0 -0 -0
-0 -0 -0 -0 -0 -0 -0 -0 -0 -0 -0 -0 -0 -0 -0 -0 -0 -0 -0 -0 -0 -0 -0 -0 -0 -0 -0 -0 -0 -0 -0 -0 -0 -0 -0 -0 -0 -0 -0 -0 -0 -0 -0
-0 -0 -0 -0 -0 -0 -0 -0 -0 -0 -0 -0 -0 -0 -0 -0 -0 -0 -0 -0 -0 -0 -0 -0 -0 -0 -0 -0 -0 -0 -0 -0 -0 -0 -0 -0 -0 -0 -0 -0 -0 -0 -0
-0 -0 -0 -0 -0 -0 -0 -0 -0 -0 -0 -0 -0 -0 -0 -0 -0 -0 -0 -0 -0 -0 -0 -0 -0 -0 -0 -0 -0 -0 -0 -0 -0 -0 -0 -0 -0 -0 -0 -0 -0 -0 -0
-0 -0 -0 -0 -0 -0 -0 -0 -0 -0 -0 -0 -0 -0 -0 -0 -0 -0 -0 -0 -0 -0 -0 -0 -0 -0 -0 -0 -0 -0 -0 -0 -0 -0 -0 -0 -0 -0 -0 -0 -0 -0 -0
-0 -0 -0 -0 -0 -0 -0 -0 -0 -0 -0 -0 -0 -0 -0 -0 -0 -0 -0 -0 -0 -0 -0 -0 -0 -0 -0 -0 -0 -0 -0 -0 -0 -0 -0 -0 -0 -0 -0 -0 -0 -0 -0
Wind_Speed
35 35 34 32 29 27 26 27 28 28 28 27 27 28 30 31 30 32 34 34 35 35 34 33 34 33 33 33 33 33 32 32 38 37 32 27 24 23 22 22 22 22 20
38 38 38 37 35 34 34 33 32 33 32 32 33 33 33 34 33 34 35 35 36 36 35 34 35 33 33 33 32 31 32 32 33 35 31 26 26 21 21 21 20 21 20
39 40 40 40 41 42 41 41 39 39 38 37 36 37 37 36 36 36 36 36 36 37 37 36 36 34 34 32 31 32 31 30 29 31 30 27 27 22 21 22 21 19 18
43 43 44 45 45 44 44 44 44 43 44 43 42 42 41 40 39 39 39 39 39 39 38 36 35 34 34 32 31 30 29 29 29 29 28 27 26 23 20 21 20 19 18
47 48 48 47 46 46 46 46 45 45 45 44 44 43 43 42 42 40 39 40 40 40 38 38 37 35 33 32 31 31 29 30 29 29 31 29 28 24 22 19 20 19 18
49 50 49 49 49 47 47 47 46 45 44 43 43 42 42 40 38 37 37 37 38 39 40 38 36 35 35 33 31 30 28 29 29 29 29 28 25 22 20 18 17 19 23
49 49 49 49 49 48 47 47 47 45 43 43 42 41 42 41 39 38 37 38 39 40 40 40 40 37 36 35 33 31 30 28 26 26 28 27 25 20 16 17 20 19 21
50 49 48 48 49 48 47 47 46 45 45 43 43 41 42 40 38 38 36 37 39 40 40 39 40 38 35 32 32 32 31 28 26 23 22 20 18 16 16 16 16 16 18
49 49 48 48 49 48 48 48 46 46 45 45 43 42 41 41 39 38 37 38 39 40 40 37 35 36 36 31 30 28 27 25 22 20 18 16 14 14 14 12 16 18 22
50 50 49 48 48 49 47 47 44 44 46 45 46 43 42 42 39 38 38 39 41 39 37 35 33 32 28 25 25 24 25 23 19 18 17 17 17 12 10 12 14 17 21
50 50 49 48 48 47 46 45 45 45 44 44 44 43 42 42 42 39 37 37 38 38 37 35 32 29 27 25 24 23 22 17 16 15 15 13 12 12 12 14 14 17 17
50 50 49 48 47 46 46 46 45 45 46 46 46 44 41 40 39 39 38 36 33 34 34 32 29 28 27 26 21 20 17 14 16 15 13 14 15 15 16 16 14 15 15
50 51 50 48 46 44 46 46 46 45 46 46 46 46 45 41 38 37 36 34 26 26 26 25 27 25 24 21 16 14 13 13 13 13 13 14 14 14 14 15 17 15 15
51 50 49 49 49 46 44 43 43 43 43 43 45 46 44 41 38 34 33 29 23 24 25 25 24 23 21 18 13 13 12 12 13 14 12 14 15 16 17 17 18 16 17
50 49 48 46 46 45 43 42 41 38 37 38 38 37 37 37 34 32 30 24 22 22 23 24 23 21 18 14 13 11 11 10 11 11 13 14 17 18 19 16 16 14 17
51 49 47 46 43 43 41 40 35 34 32 30 29 28 28 26 28 26 21 19 19 20 22 22 20 17 14 13 11 11 10 10 13 13 15 16 19 19 18 16 17 19 20
48 48 46 44 42 40 37 36 35 29 25 25 25 25 23 22 20 19 17 16 17 16 18 17 16 14 13 12 11 11 13 15 16 16 18 19 21 20 18 20 20 20 23
45 45 43 41 37 35 32 31 27 26 25 24 23 23 21 18 18 17 16 16 17 16 18 17 17 16 16 16 16 17 17 18 19 20 21 21 21 21 22 23 22 25 25
43 41 39 36 32 29 27 24 22 22 21 21 21 20 20 18 18 18 17 17 17 18 18 18 18 17 17 16 16 16 18 19 20 21 23 23 23 23 23 22 22 25 25
38 36 34 29 25 22 19 17 17 17 16 17 18 19 19 18 18 18 18 18 17 18 18 17 18 17 17 17 18 19 21 22 23 23 24 23 22 22 24 25 26 27 29
34 31 27 22 19 16 14 13 13 13 13 15 18 20 19 16 16 16 17 17 17 17 17 18 18 19 20 20 20 21 21 22 23 23 24 24 24 26 27 28 29 30 31
26 23 19 16 14 13 12 12 12 14 15 16 17 18 17 16 16 16 16 17 17 18 19 19 20 21 21 22 23 24 24 25 26 27 28 28 29 29 30 31 32 33 33
20 17 16 15 13 12 12 13 14 15 15 16 16 17 17 17 17 17 18 19 19 20 21 21 22 23 24 25 26 27 28 29 30 30 31 32 32 33 33 34 34 34 33
16 16 15 15 14 13 13 14 15 15 16 16 17 17 18 18 18 18 19 20 21 22 23 24 25 26 27 28 29 29 29 30 31 31 31 32 33 33 33 33 32 31 30
15 15 14 14 15 14 14 15 16 17 17 18 18 18 19 20 21 22 23 24 25 26 27 28 29 29 30 31 32 32 32 32 31 31 30 30 32 31 30 30 28 28 27
15 15 15 16 16 16 17 17 18 18 19 20 21 21 22 23 24 25 26 27 28 29 30 30 31 32 32 32 32 32 32 32 31 29 28 28 29 28 27 26 25 25 25
Wind_Direction
320 321 321 318 316 313 309 307 305 304 302 299 297 296 294 293 293 292 291 292 291 291 290 289 287 287 286 287 284 282 279 281 284 295 296 291 281 277 270 263 268 269 270
320 318 316 316 314 310 307 307 306 304 303 300 298 296 295 294 294 292 292 291 290 291 291 290 289 290 286 287 283 279 279 281 283 286 292 289 288 278 276 264 266 264 266
322 321 318 315 311 308 306 305 305 303 302 301 299 297 295 293 292 291 290 290 289 289 290 290 290 290 287 286 283 283 284 283 281 286 288 290 291 282 278 275 272 268 269
320 319 317 315 313 311 309 306 304 303 301 300 298 297 295 294 292 292 292 291 291 291 290 289 290 288 287 286 284 284 284 283 283 282 284 286 287 287 276 275 275 274 271
318 317 316 316 315 314 311 309 307 304 303 301 300 298 296 294 293 292 291 291 291 292 292 291 291 290 287 285 284 285 283 283 282 279 284 285 285 283 271 276 275 276 277
317 317 316 316 315 315 314 312 311 309 307 305 303 301 299 297 295 292 291 292 292 291 292 293 292 291 290 286 283 282 280 279 278 279 280 278 279 277 274 269 275 280 284
316 316 317 317 316 315 315 314 313 312 311 309 307 305 302 300 298 295 293 292 292 292 293 294 293 293 291 290 287 284 282 276 274 274 277 277 276 269 263 268 274 275 285
317 317 318 317 316 316 316 314 314 314 312 310 309 307 305 303 301 298 296 294 293 293 294 293 292 292 292 291 289 286 286 283 278 280 277 273 270 267 261 269 269 287 301
317 317 318 318 316 316 315 314 314 312 312 310 309 308 305 304 303 301 299 297 296 296 295 295 295 294 292 289 287 285 285 286 283 284 282 274 270 272 265 273 281 286 296
317 317 317 317 316 315 316 316 315 313 310 309 307 308 307 304 303 301 299 298 296 297 298 298 296 294 293 289 287 285 284 281 278 280 278 274 279 271 261 274 286 288 299
316 316 316 315 314 314 313 313 313 313 314 312 311 309 307 305 304 303 301 299 297 297 298 298 299 295 294 289 284 284 282 280 272 274 278 281 283 277 283 288 291 295 296
315 315 315 315 314 313 312 312 311 310 309 309 309 310 311 309 307 306 304 302 298 298 298 300 301 297 295 293 286 287 282 275 276 272 275 282 282 286 292 296 300 303 302
312 312 313 314 315 316 313 311 310 310 308 307 306 307 308 310 309 309 306 306 303 302 306 309 305 302 300 297 287 287 282 278 269 270 276 282 286 295 302 305 309 310 311
310 311 312 312 312 313 314 313 312 312 311 309 307 306 306 306 307 310 309 307 304 308 311 311 310 309 303 299 289 291 287 280 279 281 281 294 301 303 302 302 301 301 303
309 309 310 311 312 312 313 313 313 313 313 313 313 312 309 308 309 308 306 307 308 314 316 313 310 308 305 301 296 297 292 291 290 293 296 298 303 305 306 306 306 302 301
308 308 309 309 310 312 313 314 316 315 317 319 320 322 323 319 318 316 316 315 318 317 317 316 316 317 314 308 305 298 299 294 295 296 299 303 308 312 310 308 304 301 299
308 307 307 307 308 309 311 313 315 320 327 328 329 328 332 333 335 331 328 327 329 332 333 333 330 327 331 322 313 308 304 303 303 303 305 309 312 313 310 306 304 304 304
310 308 306 305 305 307 309 311 315 317 320 325 332 337 338 342 338 334 335 330 329 331 331 331 330 329 323 318 316 313 313 313 312 310 309 312 312 311 309 307 306 305 306
310 310 308 305 305 307 309 312 316 319 322 325 328 333 336 345 341 344 340 335 337 332 332 333 335 335 334 334 331 329 323 320 317 315 314 313 313 313 313 313 313 310 309
311 311 310 308 308 310 312 315 322 328 333 336 335 329 330 336 339 338 342 345 341 339 342 342 342 342 341 338 333 327 322 319 318 318 318 320 320 319 316 314 313 311 310
311 313 313 313 316 319 322 325 332 337 341 338 333 331 337 339 341 345 347 347 346 346 346 343 339 336 334 333 332 330 328 327 325 323 322 321 320 317 316 315 313 312 312
317 319 320 321 327 334 337 339 340 334 333 334 335 338 343 345 346 347 348 350 347 343 338 338 340 339 335 333 330 327 325 324 323 321 319 318 316 315 315 314 312 312 311
326 330 323 323 335 342 344 340 335 335 339 341 340 341 346 350 349 347 344 342 340 340 340 338 335 332 330 329 327 325 322 320 319 318 316 315 314 313 312 311 311 311 310
331 322 332 327 341 336 343 338 343 351 354 352 350 348 346 344 344 344 342 339 337 335 333 331 329 327 325 324 324 323 322 321 321 319 318 317 315 314 314 313 313 313 313
325 331 332 338 335 337 342 341 342 345 346 345 343 344 341 339 336 333 331 330 329 327 325 325 324 323 322 321 321 321 321 321 320 320 320 319 317 316 316 316 316 316 316
332 336 329 330 333 338 338 339 340 339 337 337 337 338 336 333 331 329 327 326 323 322 322 322 321 321 321 321 321 321 320 320 320 320 321 320 319 318 319 319 318 318 318